Content
SEND FEEDBACK

Daily
Averages
Monthly
Summary
Malta

VALLETTA, MALTA


Home > Europe > Malta
Elevation: 299 feet     Latitude: 35 51N     Longitude: 014 29E

WEATHER
 
SELECT A DAY
Number of Records: 310,800;   Date Range: 7/1/96 - 9/15/14
 
SHARE

PRINT THIS DATA

[ ← Previous Day ]
WEATHER ALMANAC - AUGUST 1, 2014
[ Next Day → ]
[ °C ]   °F
Weather ElementAverageHighLow
Temperature77.5 °F86 °F (1:45 pm)69.8 °F (5:45 am)
Dewpoint64.5 °F69 °F (8:00 am)57 °F (8:00 pm)
Humidity65.3 %94 % (5:45 am)34 % (2:00 pm)
Barometer29.87 in29.89 in (12:45 am)29.83 in (4:45 pm)
Wind Speed9.7 mph15 mph (2:45 am)
Weather ElementAverage
Visibility6.7 mi
Wind DirectionWNW (293.9 °)

Weather ElementTotal
Precipitation---
Cooling Degree Days12.9 (Base 65)
Growing Degree Days27.9 (Base 50)
Averaged from 54 records on August 1, 2014
WEATHER CONDITIONS BREAKOUT
WIND DIRECTION BREAKOUT
WEATHER BY HOUR - AUGUST 1, 2014
[ °C ]   °F
Local TimeTemperatureDewpointHumidityBarometerVisibilityWind DirectionWind SpeedGust SpeedPrecipitationEventsConditions
12:45 AM71.6 °F66.2 °F83 %29.89 inNNW (330°)12.7 mphClear
1:15 AM71.6 °F66.2 °F83 %29.89 inNorth (350°)10.4 mphClear
1:45 AM71.6 °F66.2 °F83 %29.89 inNNW (330°)12.7 mphClear
2:00 AM72.0 °F67.0 °F79 %29.88 in6.0 miNNW (340°)11.5 mph
2:15 AM71.6 °F68.0 °F88 %29.86 inNNW (340°)13.8 mphClear
2:45 AM71.6 °F68.0 °F88 %29.86 inNNW (340°)15.0 mphClear
3:15 AM71.6 °F68.0 °F88 %29.86 inNNW (330°)10.4 mphClear
3:45 AM71.6 °F68.0 °F88 %29.86 inNNW (330°)11.5 mphClear
4:15 AM71.6 °F68.0 °F88 %29.86 inNNW (340°)11.5 mphClear
4:45 AM71.6 °F68.0 °F88 %29.86 in6.2 miNNW (340°)13.8 mphPartly Cloudy
5:00 AM71.0 °F68.0 °F88 %29.86 in6.0 miNNW (340°)12.7 mphScattered Clouds
5:15 AM71.6 °F68.0 °F88 %29.86 in6.2 miNNW (330°)9.2 mphScattered Clouds
5:45 AM69.8 °F68.0 °F94 %29.86 in5.6 miNNW (340°)4.6 mphPartly Cloudy
6:15 AM69.8 °F68.0 °F94 %29.86 in4.3 miNW (320°)4.6 mphPartly Cloudy
6:45 AM69.8 °F68.0 °F94 %29.86 in5.0 miVariable1.2 mphPartly Cloudy
7:15 AM71.6 °F68.0 °F88 %29.86 in5.0 miVariable1.2 mphMostly Cloudy
7:45 AM71.6 °F68.0 °F88 %29.86 in6.2 miNW (320°)5.8 mphMostly Cloudy
8:00 AM73.0 °F69.0 °F83 %29.88 in7.0 miNW (320°)5.8 mph
8:15 AM73.4 °F68.0 °F83 %29.89 in6.2 miNW (320°)8.1 mphMostly Cloudy
8:45 AM77.0 °F68.0 °F74 %29.89 in6.2 miNNW (340°)10.4 mphMostly Cloudy
9:15 AM78.8 °F66.2 °F65 %29.89 in6.2 miNW (320°)12.7 mphScattered Clouds
9:45 AM78.8 °F66.2 °F65 %29.89 in6.2 miNNW (340°)12.7 mphScattered Clouds
10:15 AM78.8 °F66.2 °F65 %29.89 in6.2 miNW (320°)10.4 mphScattered Clouds
10:45 AM80.6 °F66.2 °F61 %29.89 in6.2 miNW (320°)10.4 mphScattered Clouds
11:00 AM81.0 °F66.0 °F51 %29.88 in12.0 miNW (310°)10.4 mphPartly Cloudy
11:15 AM82.4 °F64.4 °F54 %29.89 inNW (310°)9.2 mphClear
11:45 AM82.4 °F64.4 °F54 %29.89 in6.2 miWNW (300°)11.5 mphPartly Cloudy
12:15 PM82.4 °F64.4 °F54 %29.89 in6.2 miNW (320°)9.2 mphPartly Cloudy
12:45 PM84.2 °F64.4 °F51 %29.89 in6.2 miNW (320°)8.1 mphPartly Cloudy
1:15 PM84.2 °F62.6 °F48 %29.86 in6.2 miNNW (330°)10.4 mphPartly Cloudy
1:45 PM86.0 °F60.8 °F43 %29.86 in6.2 miNW (310°)9.2 mphPartly Cloudy
2:00 PM85.0 °F61.0 °F34 %29.86 in12.0 miWNW (300°)10.4 mph
2:15 PM86.0 °F59.0 °F40 %29.86 in6.2 miNW (310°)10.4 mphPartly Cloudy
2:45 PM84.2 °F62.6 °F48 %29.86 inWNW (290°)11.5 mphClear
3:15 PM84.2 °F66.2 °F55 %29.86 in6.2 miWest (280°)10.4 mphPartly Cloudy
3:45 PM84.2 °F64.4 °F51 %29.86 in6.2 miWest (280°)10.4 mphPartly Cloudy
4:15 PM84.2 °F66.2 °F55 %29.86 in6.2 miWest (280°)11.5 mphPartly Cloudy
4:45 PM84.2 °F64.4 °F51 %29.83 in6.2 miWNW (290°)12.7 mphPartly Cloudy
5:00 PM84.0 °F62.0 °F37 %29.84 in12.0 miWNW (300°)13.8 mphScattered Clouds
5:15 PM84.2 °F60.8 °F45 %29.83 in6.2 miWNW (290°)12.7 mphPartly Cloudy
5:45 PM84.2 °F59.0 °F42 %29.83 in6.2 miWNW (300°)15.0 mphPartly Cloudy
6:15 PM82.4 °F60.8 °F48 %29.83 in6.2 miWNW (290°)13.8 mphPartly Cloudy
6:45 PM82.4 °F60.8 °F48 %29.83 in6.2 miWNW (300°)12.7 mphPartly Cloudy
7:15 PM80.6 °F60.8 °F51 %29.83 in6.2 miWNW (300°)12.7 mphPartly Cloudy
7:45 PM80.6 °F57.2 °F45 %29.86 in6.2 miNW (320°)8.1 mphPartly Cloudy
8:00 PM79.0 °F57.0 °F37 %29.85 in9.0 miNorth (10°)6.9 mph
8:15 PM78.8 °F59.0 °F51 %29.86 inNorth (360°)8.1 mphClear
8:45 PM75.2 °F60.8 °F61 %29.86 inNNW (340°)8.1 mphClear
9:15 PM75.2 °F62.6 °F65 %29.86 inNNW (330°)10.4 mphClear
9:45 PM75.2 °F62.6 °F65 %29.89 inNorth (350°)5.8 mphClear
10:15 PM75.2 °F62.6 °F65 %29.89 inNW (310°)5.8 mphClear
11:00 PM74.0 °F62.0 °F59 %29.88 in9.0 miWest (280°)3.5 mph
11:15 PM73.4 °F62.6 °F69 %29.89 inVariable2.3 mphClear
11:45 PM73.4 °F60.8 °F65 %29.89 inWest (260°)3.5 mphClear
Hourly data recorded from LMML, located miles away from Valletta, Malta







STORIES FROM OUR PARTNERS